Tracking 17559 objects as of 14-February-2016
HD Live streaming from Space Station
objects crossing your sky now

MAQSAT H

Track MAQSAT H now!
10-day predictions
MAQSAT H is classified as:


NORAD ID: 25023
Int'l Code: 1997-066A
Perigee: 591.6 km
Apogee: 26,405.0 km
Inclination: 7.9 °
Period: 464.6 minutes
Semi major axis: 19869 km
RCS: 21.0323 m2 (large)
Launch date: October 30, 1997
Source: European Space Agency (ESA)
Launch site: FRENCH GUIANA (FRGUI)
Your satellite tracking list
Your tracking list is empty





NASA's NSSDC Master Catalog

Two Line Element Set (TLE):
1 25023U 97066A   16043.35321591 -.00000179 +00000-0 -11223-2 0  9993
2 25023 007.8563 293.2242 6495811 313.3315 346.7512 03.0997692226643
Source of the keplerian elements: AFSPC

N2YO: 326